Wind_Speed
40 40 40 40 40 40 40 40 40 40 39 39 39 38 37 37 36 36 36 36 36 34 32 32 33 33 31 30 32 33 33 32 30 29 30 29 28 27 25 24 25 30 40 43 38 37 38 33 29 29 28 32 37 33 29 29 28 29 30 30 29 26 23
39 39 39 39 40 40 40 40 39 39 38 38 38 37 37 36 36 36 36 35 35 34 31 31 31 31 30 30 32 34 34 34 32 31 31 30 29 29 27 25 26 29 35 42 42 39 38 35 30 29 29 32 36 36 32 30 29 28 29 29 30 29 26
38 39 39 39 40 40 39 39 39 38 37 37 37 37 36 36 35 35 35 35 34 33 30 30 29 29 29 30 33 35 34 35 34 32 32 32 31 30 30 27 27 28 32 39 42 40 38 37 33 31 31 32 34 34 33 31 29 28 28 27 28 29 27
38 38 39 39 39 40 40 40 39 39 38 37 36 36 36 35 34 34 34 33 32 31 29 28 28 29 29 31 34 36 36 36 35 34 34 33 32 31 31 30 28 28 30 34 40 40 38 36 34 32 31 32 34 33 32 30 29 28 27 26 26 26 27
38 38 38 39 39 39 40 40 40 39 38 37 36 36 35 35 34 33 32 31 31 30 28 27 28 29 30 32 34 36 37 37 37 37 35 34 34 33 32 31 30 30 29 31 35 38 38 35 34 33 32 32 34 34 32 30 29 27 26 26 25 23 25
38 38 38 38 38 39 39 39 39 39 38 38 37 35 35 34 33 32 31 31 30 28 27 27 28 30 31 33 35 36 38 38 38 38 37 36 35 34 33 33 31 31 30 30 31 34 36 35 33 32 32 31 32 34 33 32 31 29 25 25 25 22 22
38 37 37 38 37 38 38 38 38 38 38 37 36 35 34 33 33 32 31 29 28 27 27 29 30 31 32 33 35 37 38 39 39 39 39 38 36 35 34 34 32 31 30 29 30 32 35 34 32 31 31 32 32 32 32 31 32 32 27 25 25 22 21
38 37 37 37 37 37 37 38 37 37 37 36 36 35 34 33 32 31 30 28 28 28 30 31 31 32 34 35 36 37 38 38 39 39 39 38 35 34 34 33 32 31 29 28 29 32 33 32 31 30 31 32 32 32 31 29 31 33 31 28 25 22 21
37 37 37 36 36 36 37 37 37 36 36 36 36 34 33 32 30 30 29 29 30 31 32 32 33 34 35 37 38 38 39 39 38 37 37 36 34 33 33 32 31 29 28 28 29 31 31 31 31 30 30 30 29 30 30 29 30 31 31 31 28 22 20
36 36 37 37 36 36 36 36 36 35 35 35 34 33 31 30 29 29 29 31 32 33 34 35 36 37 38 39 40 40 40 39 37 35 33 33 32 31 31 30 29 27 26 27 28 29 29 29 30 28 26 26 26 27 27 28 29 31 32 33 32 26 20
36 36 36 37 37 36 36 36 35 35 35 34 32 30 28 28 29 29 30 32 34 36 37 38 39 40 41 42 42 42 41 39 36 34 32 31 29 28 28 27 26 25 24 25 26 27 27 27 28 26 23 23 24 24 25 27 28 31 32 33 34 33 26
36 36 36 37 37 37 36 36 35 34 34 33 32 30 28 28 29 30 31 34 36 38 40 41 42 42 42 42 42 41 40 38 35 33 32 30 28 26 26 25 23 23 23 24 25 26 26 25 24 23 23 23 23 23 26 29 29 30 32 33 34 36 33
37 37 36 37 37 37 36 36 35 34 34 33 32 30 28 28 29 32 34 37 38 40 41 42 42 42 41 41 40 39 38 36 35 33 31 28 26 24 23 23 23 24 24 24 24 26 26 23 21 23 25 25 24 26 29 30 31 32 34 35 35 37 36
37 37 37 37 37 37 37 36 35 34 34 33 33 31 30 30 32 35 37 38 38 39 40 40 41 41 40 39 38 37 37 36 35 33 30 27 25 24 22 22 24 26 26 25 24 25 25 23 20 24 28 27 25 27 28 30 33 35 36 37 38 39 37
38 38 37 36 37 37 37 35 34 34 34 34 33 32 32 33 35 37 37 37 37 37 38 38 38 39 39 38 36 36 37 36 34 32 29 27 26 25 23 22 23 25 25 24 23 23 23 23 23 25 28 26 25 26 28 31 35 37 39 40 41 40 36
39 39 38 37 36 37 37 35 34 33 34 34 33 33 34 36 37 37 38 38 37 37 36 36 36 36 37 36 36 35 35 35 33 29 28 28 28 26 24 22 21 21 21 21 21 21 21 22 24 26 27 26 27 31 35 38 39 39 39 39 38 36 32
40 39 39 38 37 37 38 36 33 33 33 33 33 33 35 37 38 38 39 39 38 37 36 35 34 34 35 35 34 34 34 33 30 27 26 28 28 26 25 24 22 21 21 22 23 24 25 26 28 30 31 31 32 35 37 38 38 36 34 33 32 31 29
40 40 39 39 38 38 38 37 34 33 32 32 32 33 35 37 38 39 40 40 39 38 37 36 34 33 33 33 33 33 32 31 27 25 26 27 27 27 28 28 27 27 27 27 27 27 28 29 31 31 31 31 30 30 31 31 31 30 28 28 27 27 28
41 41 40 40 39 39 39 38 36 33 32 32 32 32 34 36 38 40 40 40 40 40 38 36 35 32 31 31 31 32 31 29 26 25 25 25 26 29 32 32 32 32 33 33 32 30 30 30 29 29 28 27 26 26 26 26 26 26 26 26 25 24 25
41 42 41 40 40 39 38 38 36 33 32 33 32 32 33 35 37 39 40 40 41 41 40 38 36 33 31 30 29 30 30 29 27 25 23 23 27 33 35 35 35 35 36 37 36 33 31 30 29 29 28 26 25 25 25 25 25 25 24 25 25 23 24
41 42 42 41 41 40 39 38 37 35 33 33 33 32 32 34 36 37 39 41 42 42 41 39 37 35 33 31 30 30 29 29 28 26 24 25 31 34 34 34 35 36 37 37 36 34 33 30 29 29 29 27 25 24 24 24 23 24 24 24 25 25 25
42 43 43 41 41 40 39 38 37 36 34 33 32 32 32 34 35 35 37 40 42 42 41 40 39 37 35 34 33 32 30 29 28 28 29 31 33 33 32 32 33 34 35 35 35 35 34 31 28 28 28 28 26 23 23 23 23 23 23 23 24 25 26
42 43 44 42 41 40 39 38 38 38 36 34 33 32 32 33 34 35 36 39 41 42 41 41 40 38 37 36 35 34 33 31 30 30 31 32 32 32 32 32 32 33 33 34 34 35 35 32 28 27 27 26 26 24 23 23 23 23 23 23 23 23 24
42 43 44 44 42 40 39 39 39 38 37 36 34 33 32 32 33 34 35 38 40 41 41 41 40 39 38 37 36 35 35 34 33 32 32 31 31 32 32 33 33 33 32 34 35 35 34 32 28 26 26 25 25 25 25 24 23 23 23 23 23 22 23
43 43 44 45 44 43 41 39 39 39 37 36 35 34 33 33 34 34 35 37 39 40 40 40 40 39 39 38 37 36 36 35 34 33 33 32 31 31 31 32 33 33 33 35 36 36 35 33 29 25 25 25 25 26 25 25 24 24 23 24 24 23 23
44 44 45 45 45 44 43 41 40 39 38 36 35 34 34 34 35 35 35 37 38 39 39 40 40 39 40 39 39 38 37 36 34 32 32 31 30 30 29 29 29 31 32 35 36 36 36 34 30 26 25 25 26 26 26 25 26 25 24 24 24 25 24
45 46 47 47 47 46 45 44 41 39 37 35 35 35 35 35 36 36 37 38 39 39 39 40 41 41 40 40 39 38 38 36 34 32 30 28 27 27 27 27 27 29 31 34 35 36 36 35 32 29 27 25 26 27 26 26 26 26 25 24 25 25 25
45 46 46 47 49 49 48 46 42 39 37 37 37 37 37 37 37 37 38 39 40 40 41 42 43 44 43 42 41 40 38 37 35 32 30 28 26 26 25 26 27 29 31 32 33 34 35 34 33 31 28 26 26 27 26 26 26 26 25 25 25 26 25
45 45 45 46 47 48 49 48 43 39 38 38 38 39 39 39 39 39 39 39 39 40 42 43 44 45 45 45 44 43 42 40 37 35 33 31 29 27 26 25 27 28 30 30 30 32 33 33 33 33 30 28 27 27 26 26 27 27 25 25 25 26 25
44 44 44 45 45 44 46 47 45 41 39 39 38 38 38 38 37 37 38 38 37 38 41 43 45 46 45 45 45 45 44 42 41 39 37 34 32 31 29 27 26 27 27 28 29 31 31 32 33 33 32 30 29 28 26 26 26 26 26 26 26 26 25
44 43 43 45 46 45 45 45 45 44 43 41 38 36 36 36 36 36 36 36 36 38 42 44 46 47 46 45 46 46 45 44 43 42 40 38 35 34 32 30 27 25 25 27 28 30 31 31 32 32 32 31 30 29 28 27 27 27 27 26 26 26 25
45 45 44 45 47 48 47 46 46 45 44 42 40 39 38 37 37 36 36 36 36 39 43 45 46 47 47 47 47 47 46 45 45 44 43 41 39 36 34 32 29 25 25 26 28 29 31 31 31 31 31 31 30 30 29 28 27 27 27 27 26 26 25
46 47 47 46 47 49 49 48 47 46 45 44 44 43 42 41 40 38 37 36 37 41 43 44 44 46 46 46 46 46 45 45 45 45 44 43 41 38 36 34 32 29 27 27 27 28 30 31 30 31 31 30 30 30 30 30 29 28 27 27 27 26 25
45 46 47 47 47 48 49 49 48 47 47 46 46 46 45 45 45 44 41 38 38 41 42 42 42 43 42 43 43 43 43 42 42 42 43 43 41 39 36 35 34 32 30 27 27 28 29 30 30 30 31 31 30 29 30 30 30 29 28 28 27 27 26
49 47 47 48 49 50 50 50 50 50 49 49 48 48 47 46 46 46 44 41 40 40 40 41 41 41 41 41 41 40 40 40 40 39 40 40 40 38 36 34 34 33 32 28 27 28 29 29 29 30 30 30 30 30 30 30 30 29 29 28 28 27 27
54 52 50 50 51 53 53 53 53 52 51 50 49 47 45 44 44 44 43 42 40 40 40 40 40 41 40 40 40 39 39 39 39 38 37 37 37 36 35 34 33 33 32 30 28 28 28 29 29 29 29 30 31 31 31 30 30 29 29 29 28 28 28
Wind_Direction
326 326 325 325 324 324 323 322 322 321 319 317 315 313 310 308 306 304 304 303 302 303 302 301 300 299 302 304 304 305 307 308 309 309 308 307 307 306 307 308 306 302 299 297 300 304 306 309 309 306 307 303 299 302 303 299 300 302 303 306 306 305 305
327 327 326 326 325 325 324 323 323 322 321 319 317 315 312 310 307 305 304 303 302 302 303 302 300 301 303 304 304 306 308 308 309 309 308 308 309 306 306 307 306 304 301 298 300 304 305 308 311 307 304 303 301 304 306 304 303 302 302 304 305 306 306
327 327 326 325 325 324 323 323 322 322 321 320 318 316 314 312 309 306 305 303 303 303 302 301 301 303 305 305 305 305 307 308 308 309 309 308 309 308 305 306 305 303 302 301 301 304 306 308 311 309 306 305 303 304 308 308 305 302 301 302 302 304 305
327 326 325 325 324 323 323 323 323 322 322 320 318 316 314 312 310 308 306 304 302 301 302 302 304 305 306 305 304 305 306 307 308 309 309 309 309 308 305 305 305 302 302 301 300 301 306 309 311 310 307 307 305 304 306 307 305 301 299 300 300 301 302
327 326 325 325 324 324 323 323 323 323 322 321 319 316 314 312 310 308 306 303 300 300 302 304 305 305 306 305 304 304 304 306 308 309 309 309 308 308 307 305 304 302 301 300 298 300 304 308 311 310 308 308 308 307 306 306 305 303 301 299 299 299 299
327 326 326 326 325 324 324 324 324 323 323 321 320 318 315 312 310 307 305 301 301 305 307 307 306 305 305 304 302 302 303 305 307 309 309 310 309 308 307 304 303 303 301 298 297 299 302 306 311 311 309 310 312 312 311 310 306 303 303 300 297 297 296
327 327 327 326 326 325 324 324 324 324 323 322 321 319 316 312 309 306 305 305 309 314 312 308 305 303 302 300 300 300 302 304 306 308 308 309 308 307 305 303 302 302 300 299 298 298 301 306 311 311 311 312 313 313 314 315 310 306 307 304 301 302 301
327 327 327 327 326 325 325 324 324 325 324 322 321 319 316 314 311 310 311 314 316 313 308 304 302 299 297 297 297 298 300 302 305 306 306 305 305 303 301 301 301 300 299 298 297 298 302 308 310 311 313 314 315 316 317 318 315 312 313 311 308 311 312
327 327 326 326 325 325 325 324 325 325 324 323 322 321 319 317 315 315 316 314 309 303 300 298 296 295 294 294 295 296 298 300 303 303 303 302 302 300 298 298 298 298 298 298 297 300 304 308 310 312 316 318 318 320 320 320 317 315 314 312 310 312 316
327 327 326 326 325 325 325 325 325 325 324 324 324 322 319 316 314 314 310 305 299 296 294 293 292 292 292 293 295 297 299 301 303 302 301 299 298 296 295 295 296 296 297 297 297 300 305 308 307 311 319 319 317 319 319 319 319 317 315 314 313 311 313
326 326 326 325 325 325 325 325 326 325 324 324 323 320 317 313 310 307 302 298 296 293 291 291 291 292 293 295 298 300 302 304 304 303 301 298 295 291 288 288 289 292 294 294 295 298 303 304 305 310 317 315 315 318 317 315 317 316 315 316 318 315 314
326 326 326 325 325 325 325 326 326 326 324 323 322 320 316 310 305 301 297 293 291 291 291 292 294 296 297 299 301 303 305 306 305 303 302 299 295 289 284 280 277 280 285 289 292 295 298 300 304 310 311 309 311 313 311 310 311 311 311 313 315 315 315
326 326 326 325 325 324 324 325 326 325 324 322 321 320 314 306 300 296 292 291 291 292 293 295 297 298 300 302 303 305 306 306 305 304 302 300 296 290 285 277 269 266 270 277 285 289 292 294 301 305 304 305 308 307 307 308 306 304 305 307 309 310 313
325 325 325 325 324 323 323 325 325 324 323 321 320 318 312 304 298 296 295 295 295 294 295 297 298 300 302 305 306 305 305 306 306 305 303 301 296 290 285 276 268 265 266 270 277 281 283 284 289 296 299 301 303 303 304 303 299 299 301 303 305 307 310
324 324 325 324 323 322 322 324 325 324 322 320 319 316 310 304 301 301 301 301 299 298 299 300 301 302 304 306 306 305 304 305 306 305 303 299 295 292 290 282 276 273 272 273 276 279 281 282 282 286 290 293 293 293 293 292 292 294 297 299 300 302 305
323 323 324 324 323 321 321 323 325 323 321 319 317 314 309 306 305 304 303 303 304 303 304 303 303 303 304 303 303 304 303 304 306 305 300 296 296 297 295 289 284 280 276 274 276 277 278 276 273 273 275 279 283 284 285 286 288 290 293 295 296 299 301
322 322 322 323 322 321 320 323 325 323 319 317 315 312 309 307 306 305 304 305 306 306 306 305 305 304 303 302 302 302 302 305 306 303 296 295 297 296 292 287 285 282 277 273 271 270 268 267 267 270 273 277 280 282 283 286 288 290 292 292 295 298 298
321 322 322 322 322 321 320 322 324 322 318 315 313 309 307 306 306 305 305 306 307 306 305 305 305 305 303 302 302 301 301 304 305 299 294 294 295 293 290 288 288 287 285 282 280 278 277 276 276 278 280 282 283 283 284 286 288 290 291 291 294 296 297
320 320 321 321 320 320 319 320 322 322 318 315 312 309 307 305 304 304 305 306 306 306 305 305 306 306 304 302 301 299 299 300 299 296 295 296 296 292 289 289 290 291 290 290 290 290 288 286 285 285 286 288 288 287 287 287 288 289 290 290 291 294 297
318 318 320 320 319 319 319 319 321 321 317 314 312 309 306 303 302 303 304 304 304 305 307 308 308 307 305 303 300 298 297 297 296 296 295 293 288 285 286 290 291 291 290 291 293 294 292 291 291 291 291 292 291 289 287 287 287 287 286 287 289 291 293
318 317 318 319 318 318 319 320 320 319 317 314 312 310 306 303 302 302 302 302 302 303 305 307 308 307 306 304 301 298 296 295 295 292 286 280 278 279 284 289 289 288 288 290 292 292 291 291 291 291 291 291 289 287 286 286 285 285 283 283 285 287 287
317 316 316 317 317 318 319 320 319 317 316 315 313 311 307 303 301 300 298 298 300 302 304 305 306 307 306 304 301 298 296 294 292 287 283 281 282 284 286 285 284 285 286 287 288 289 289 289 290 289 288 289 288 286 284 282 282 282 282 281 282 283 284
316 315 315 316 316 317 319 319 317 316 316 316 314 311 307 302 299 298 295 295 298 301 302 303 304 304 303 302 300 299 297 294 290 286 285 286 287 287 287 285 284 284 285 286 286 286 287 289 290 288 286 286 287 285 283 281 281 281 280 280 280 280 282
315 314 314 314 316 318 319 317 316 316 316 316 314 311 307 301 298 296 295 294 296 298 299 300 301 301 300 299 298 298 296 295 292 290 288 288 287 287 287 286 285 286 286 285 284 285 286 288 289 288 286 285 285 284 283 282 281 280 280 280 279 278 279
315 314 313 314 315 317 318 317 316 316 316 316 314 310 305 301 298 297 295 293 294 295 296 297 298 298 297 296 296 295 294 293 294 293 291 288 286 285 284 284 285 285 284 283 284 285 286 288 289 288 285 282 280 280 281 283 283 282 281 280 280 279 279
315 314 314 315 316 316 316 317 317 317 317 316 312 307 304 301 299 297 295 293 293 294 294 294 294 293 293 293 293 293 293 293 294 294 292 290 287 284 282 282 283 283 282 282 283 285 286 288 289 287 283 280 279 279 280 282 282 282 282 281 280 279 279
316 315 316 317 317 316 316 317 317 318 319 316 311 308 305 302 299 298 296 295 294 294 293 292 292 291 291 291 291 292 292 293 294 293 292 291 289 286 284 282 281 280 280 280 281 283 285 287 287 286 283 280 279 278 279 280 281 282 281 281 280 280 280
314 315 317 317 316 316 316 316 318 321 320 315 312 309 307 303 301 299 297 295 295 295 294 293 293 293 294 295 295 296 296 296 296 296 295 293 291 288 286 283 280 278 277 278 280 282 283 284 284 284 283 281 278 277 278 279 280 281 282 281 280 280 281
313 315 316 315 314 315 315 315 319 322 319 315 312 310 307 305 303 301 299 297 297 296 294 293 292 293 295 296 297 299 300 300 300 300 298 297 295 292 288 285 281 278 277 278 278 279 280 281 282 282 282 280 278 277 277 277 278 280 281 280 279 279 281
314 315 316 314 314 315 314 315 318 320 318 315 313 309 307 305 303 302 300 299 297 294 291 289 289 289 291 293 294 295 297 299 299 299 299 298 297 294 292 288 283 281 279 278 276 275 276 277 278 279 280 279 278 277 276 275 275 277 278 279 279 279 279
316 317 318 316 316 317 316 316 319 319 318 317 315 311 308 306 304 302 300 299 296 291 287 286 286 287 289 290 290 292 294 295 296 296 296 297 296 294 293 290 287 285 282 279 275 273 273 273 274 276 277 277 277 277 275 273 272 273 274 276 277 277 278
319 320 321 320 319 319 319 319 320 320 320 319 317 315 312 309 306 303 301 299 293 287 284 285 285 285 287 288 288 289 291 291 292 292 292 293 292 292 291 291 289 287 282 276 273 273 272 272 272 273 274 275 275 275 274 272 271 270 272 273 273 274 277
321 322 322 321 321 320 319 320 321 320 319 318 317 316 314 311 308 305 302 299 292 287 287 287 286 286 287 287 287 288 289 288 288 288 289 289 289 288 289 289 289 286 280 275 272 271 271 270 270 270 271 271 272 272 273 272 271 270 270 270 270 272 274
322 322 322 321 320 320 319 320 320 318 318 317 316 315 315 313 310 307 305 302 297 294 293 292 290 290 291 291 290 290 290 289 288 288 287 287 287 286 286 286 285 283 280 275 271 269 268 268 268 268 268 269 269 269 269 269 269 269 268 269 270 271 272
321 322 322 321 320 320 320 320 319 318 317 317 315 315 316 313 310 307 307 305 302 299 298 296 294 293 293 293 293 292 292 291 290 289 288 288 288 287 285 283 281 280 278 275 271 268 266 266 265 265 266 267 267 266 266 266 267 267 267 268 269 270 271
321 322 321 321 321 321 320 320 319 318 317 316 315 316 316 312 308 306 306 305 303 301 300 298 296 295 294 294 294 293 293 293 293 292 291 290 289 288 286 283 280 278 278 275 271 267 265 264 263 263 263 264 264 264 264 264 265 265 265 266 267 268 270
Height
1539 1537 1534 1531 1529 1526 1524 1522 1519 1517 1515 1512 1510 1508 1505 1503 1500 1498 1496 1493 1491 1490 1488 1486 1484 1482 1481 1480 1477 1475 1475 1473 1472 1470 1468 1467 1464 1462 1461 1459 1456 1450 1440 1436 1438 1436 1433 1434 1434 1432 1430 1426 1422 1422 1423 1421 1419 1417 1415 1412 1411 1410 1410
1536 1534 1531 1528 1526 1523 1521 1518 1516 1513 1511 1508 1506 1504 1501 1499 1497 1494 1492 1490 1487 1486 1485 1483 1481 1479 1478 1476 1474 1472 1471 1469 1469 1467 1464 1463 1461 1459 1457 1456 1453 1449 1441 1434 1432 1433 1431 1430 1431 1429 1427 1424 1420 1418 1418 1417 1416 1415 1413 1411 1408 1406 1406
1533 1530 1528 1525 1522 1520 1517 1515 1512 1510 1508 1505 1502 1500 1497 1495 1493 1490 1488 1486 1484 1482 1481 1479 1477 1476 1475 1473 1470 1469 1468 1466 1465 1463 1461 1459 1458 1456 1453 1453 1451 1447 1442 1434 1429 1428 1428 1427 1427 1426 1424 1421 1419 1416 1415 1414 1413 1412 1410 1409 1407 1404 1403
1531 1528 1525 1522 1520 1517 1514 1512 1509 1507 1505 1502 1499 1496 1493 1491 1489 1487 1485 1482 1480 1479 1478 1476 1474 1473 1471 1470 1467 1465 1464 1463 1461 1459 1458 1455 1454 1452 1450 1448 1447 1445 1441 1435 1428 1426 1425 1424 1423 1422 1421 1418 1416 1414 1413 1411 1410 1409 1407 1406 1405 1403 1400
1528 1525 1522 1519 1517 1514 1511 1509 1506 1504 1501 1499 1496 1493 1491 1488 1486 1484 1482 1479 1478 1476 1475 1473 1471 1470 1468 1466 1464 1462 1460 1459 1457 1455 1454 1452 1450 1448 1446 1444 1443 1441 1439 1435 1429 1424 1423 1422 1421 1419 1418 1416 1413 1410 1409 1408 1407 1406 1404 1403 1402 1401 1398
1525 1522 1519 1517 1514 1511 1509 1506 1503 1501 1498 1495 1493 1490 1488 1485 1483 1481 1479 1477 1475 1473 1472 1470 1469 1467 1466 1464 1461 1459 1457 1455 1454 1452 1450 1448 1446 1444 1442 1440 1439 1437 1435 1432 1428 1424 1421 1420 1419 1417 1415 1414 1411 1407 1405 1404 1402 1402 1402 1400 1398 1398 1397
1522 1519 1516 1514 1511 1508 1506 1503 1500 1498 1495 1492 1490 1487 1485 1482 1480 1477 1475 1474 1472 1471 1469 1468 1466 1464 1463 1461 1458 1456 1454 1452 1450 1448 1446 1444 1442 1440 1438 1436 1434 1433 1431 1429 1426 1423 1420 1418 1417 1415 1413 1411 1409 1406 1404 1402 1398 1396 1397 1397 1395 1395 1393
1519 1516 1513 1511 1508 1506 1503 1500 1498 1495 1492 1489 1487 1484 1481 1479 1476 1474 1472 1471 1469 1468 1467 1465 1463 1462 1459 1458 1456 1453 1451 1450 1447 1445 1442 1441 1439 1437 1435 1433 1431 1429 1428 1426 1423 1420 1418 1416 1414 1413 1411 1409 1406 1404 1402 1400 1397 1393 1392 1392 1392 1392 1391
1516 1513 1510 1508 1505 1503 1500 1497 1495 1492 1489 1486 1483 1480 1478 1475 1473 1471 1469 1468 1466 1465 1463 1461 1460 1458 1456 1454 1452 1450 1448 1447 1445 1442 1439 1437 1436 1434 1431 1430 1428 1426 1425 1423 1421 1418 1417 1414 1412 1411 1409 1407 1405 1402 1400 1398 1396 1393 1391 1389 1388 1390 1389
1513 1510 1507 1504 1502 1500 1497 1495 1492 1489 1487 1484 1481 1478 1475 1473 1471 1469 1467 1465 1462 1460 1458 1457 1455 1453 1452 1450 1448 1446 1445 1443 1442 1439 1437 1434 1432 1431 1429 1427 1425 1424 1423 1421 1418 1417 1415 1413 1410 1409 1408 1405 1403 1402 1399 1396 1394 1392 1389 1387 1385 1385 1387
1510 1507 1505 1501 1499 1496 1494 1492 1490 1487 1484 1482 1479 1476 1473 1471 1469 1467 1465 1461 1458 1456 1454 1452 1450 1449 1447 1445 1443 1442 1440 1438 1437 1435 1433 1431 1429 1428 1426 1425 1423 1421 1420 1419 1416 1415 1414 1411 1409 1408 1407 1404 1402 1400 1398 1396 1394 1391 1388 1386 1383 1381 1382
1507 1504 1502 1499 1496 1493 1491 1489 1487 1484 1481 1479 1477 1474 1472 1469 1467 1464 1461 1458 1455 1452 1450 1448 1446 1444 1443 1441 1439 1438 1436 1434 1432 1430 1429 1427 1426 1425 1423 1422 1421 1420 1418 1417 1414 1412 1411 1410 1408 1406 1405 1403 1401 1399 1396 1394 1392 1390 1387 1386 1384 1381 1379
1504 1501 1499 1496 1493 1490 1488 1486 1484 1481 1478 1476 1473 1472 1469 1466 1463 1460 1457 1454 1452 1449 1447 1444 1442 1440 1439 1438 1436 1434 1432 1430 1428 1426 1424 1423 1422 1421 1420 1419 1418 1417 1416 1415 1413 1410 1409 1408 1407 1405 1403 1401 1399 1397 1394 1391 1389 1388 1386 1384 1383 1381 1379
1500 1498 1496 1493 1490 1487 1485 1483 1480 1478 1475 1472 1470 1468 1465 1462 1458 1455 1453 1450 1448 1446 1443 1441 1439 1437 1435 1434 1432 1430 1428 1426 1424 1421 1420 1419 1418 1417 1416 1415 1414 1413 1413 1412 1411 1408 1406 1406 1406 1403 1401 1400 1398 1395 1392 1389 1386 1384 1383 1382 1380 1379 1378
1497 1495 1492 1490 1487 1484 1481 1480 1477 1474 1471 1469 1466 1464 1461 1457 1454 1451 1448 1446 1445 1442 1440 1438 1436 1434 1431 1430 1428 1426 1424 1422 1420 1418 1416 1415 1413 1412 1412 1411 1410 1410 1409 1408 1407 1406 1404 1404 1403 1401 1399 1397 1396 1393 1390 1387 1384 1383 1381 1379 1377 1376 1376
1493 1491 1489 1486 1484 1480 1477 1476 1474 1471 1468 1465 1463 1460 1456 1453 1450 1447 1444 1441 1440 1438 1436 1435 1433 1430 1428 1426 1424 1423 1421 1419 1417 1415 1413 1411 1409 1409 1408 1407 1407 1406 1405 1404 1404 1403 1402 1401 1399 1398 1396 1394 1393 1390 1387 1383 1382 1381 1380 1377 1375 1374 1373
1490 1487 1485 1482 1480 1477 1473 1472 1471 1468 1465 1462 1459 1456 1452 1448 1445 1442 1439 1437 1436 1434 1432 1431 1429 1427 1424 1422 1420 1419 1417 1416 1414 1412 1410 1408 1406 1405 1403 1403 1403 1402 1401 1401 1400 1399 1398 1397 1395 1393 1392 1391 1390 1387 1384 1381 1379 1378 1377 1374 1372 1371 1370
1486 1484 1481 1478 1476 1473 1470 1468 1467 1465 1461 1459 1456 1452 1449 1445 1441 1438 1435 1433 1431 1430 1428 1426 1425 1424 1421 1419 1417 1415 1414 1413 1411 1409 1407 1405 1403 1401 1399 1399 1399 1398 1397 1396 1396 1395 1394 1392 1391 1390 1388 1387 1386 1383 1381 1378 1376 1375 1374 1372 1371 1369 1367
1482 1479 1478 1475 1472 1470 1467 1464 1463 1461 1458 1455 1453 1449 1445 1441 1437 1434 1431 1429 1427 1425 1423 1422 1421 1420 1418 1416 1414 1412 1411 1410 1409 1406 1404 1403 1400 1397 1395 1395 1394 1393 1392 1391 1390 1389 1389 1387 1386 1385 1384 1383 1381 1380 1378 1376 1374 1373 1371 1370 1369 1368 1366
1479 1475 1473 1471 1468 1466 1463 1460 1458 1457 1454 1451 1449 1446 1442 1438 1434 1430 1427 1425 1422 1420 1418 1417 1416 1416 1414 1412 1410 1408 1407 1406 1405 1403 1401 1400 1397 1394 1392 1392 1391 1389 1387 1385 1384 1384 1383 1382 1381 1380 1379 1379 1378 1376 1375 1373 1372 1371 1369 1368 1366 1366 1365
1475 1472 1469 1467 1465 1462 1459 1457 1454 1452 1450 1447 1444 1442 1439 1434 1431 1428 1424 1420 1418 1415 1413 1412 1411 1411 1410 1408 1406 1404 1403 1402 1401 1400 1398 1396 1393 1391 1390 1389 1387 1385 1383 1381 1380 1379 1378 1378 1377 1376 1375 1375 1374 1373 1372 1370 1369 1368 1367 1366 1364 1364 1363
1472 1468 1464 1463 1460 1458 1455 1453 1450 1447 1445 1443 1440 1438 1435 1431 1427 1424 1421 1416 1413 1411 1409 1407 1406 1405 1405 1403 1401 1400 1398 1397 1396 1395 1393 1391 1389 1388 1387 1385 1383 1381 1380 1378 1376 1375 1373 1374 1373 1372 1372 1371 1370 1370 1368 1367 1367 1366 1365 1364 1362 1361 1360
1468 1463 1460 1458 1456 1454 1451 1449 1446 1443 1440 1439 1436 1434 1430 1427 1423 1421 1417 1412 1409 1407 1405 1403 1402 1400 1399 1398 1397 1395 1394 1393 1391 1390 1388 1387 1386 1384 1383 1381 1379 1377 1376 1374 1372 1371 1369 1369 1370 1369 1368 1367 1367 1366 1365 1364 1363 1363 1362 1361 1360 1359 1358
1464 1459 1455 1452 1450 1449 1447 1444 1441 1438 1436 1434 1431 1429 1426 1423 1419 1416 1413 1409 1405 1403 1401 1399 1397 1396 1394 1393 1391 1390 1389 1387 1386 1385 1384 1382 1381 1380 1378 1376 1374 1373 1372 1370 1368 1367 1365 1366 1366 1366 1365 1364 1363 1362 1361 1361 1360 1360 1359 1358 1357 1357 1356
1459 1456 1452 1448 1445 1443 1442 1440 1437 1434 1432 1429 1426 1423 1421 1418 1415 1412 1409 1406 1402 1400 1397 1395 1393 1391 1389 1387 1386 1385 1383 1382 1381 1380 1379 1378 1377 1375 1374 1372 1371 1369 1368 1365 1363 1362 1361 1361 1362 1362 1362 1361 1360 1359 1358 1358 1357 1356 1356 1355 1354 1354 1353
1454 1451 1447 1444 1441 1438 1436 1434 1432 1429 1427 1425 1421 1418 1416 1413 1410 1408 1405 1401 1398 1396 1393 1391 1388 1386 1384 1382 1381 1379 1377 1376 1375 1375 1374 1373 1373 1371 1369 1368 1367 1365 1363 1361 1359 1358 1357 1357 1358 1358 1358 1357 1356 1355 1355 1354 1353 1353 1353 1352 1351 1350 1350
1449 1446 1442 1439 1435 1432 1430 1428 1426 1424 1423 1420 1416 1413 1410 1407 1404 1402 1399 1396 1393 1391 1388 1385 1383 1381 1379 1377 1376 1374 1373 1371 1370 1370 1369 1368 1367 1367 1365 1364 1363 1361 1359 1357 1356 1355 1354 1353 1353 1353 1353 1353 1352 1352 1352 1351 1350 1349 1349 1349 1347 1346 1347
1446 1443 1440 1435 1431 1427 1424 1422 1421 1420 1417 1414 1410 1407 1404 1401 1399 1396 1393 1390 1387 1384 1381 1379 1376 1373 1371 1370 1369 1368 1366 1366 1365 1364 1363 1363 1362 1361 1361 1360 1358 1357 1355 1354 1353 1351 1350 1349 1349 1349 1349 1349 1348 1348 1348 1348 1347 1346 1346 1345 1344 1343 1343
1443 1440 1437 1433 1428 1424 1419 1415 1415 1415 1412 1408 1405 1402 1398 1395 1392 1389 1387 1384 1381 1378 1374 1371 1369 1367 1365 1364 1362 1361 1360 1359 1358 1358 1357 1357 1357 1356 1355 1355 1353 1352 1351 1350 1349 1347 1346 1345 1345 1344 1345 1345 1344 1344 1344 1344 1343 1343 1342 1342 1341 1340 1340
1439 1436 1433 1428 1424 1421 1416 1410 1409 1409 1407 1404 1401 1397 1393 1390 1387 1384 1381 1379 1376 1373 1368 1365 1363 1361 1360 1359 1357 1355 1354 1353 1353 1352 1351 1351 1351 1350 1350 1349 1348 1347 1347 1346 1344 1343 1342 1341 1340 1340 1340 1340 1340 1340 1340 1340 1339 1339 1338 1338 1338 1337 1337
1435 1432 1428 1423 1418 1415 1412 1408 1404 1402 1399 1397 1394 1391 1388 1385 1383 1380 1377 1374 1371 1366 1362 1359 1357 1354 1354 1354 1352 1350 1349 1348 1347 1346 1345 1345 1345 1344 1344 1343 1343 1343 1342 1341 1339 1338 1337 1337 1336 1336 1336 1336 1336 1336 1336 1336 1335 1335 1334 1334 1334 1333 1334
1428 1425 1422 1418 1413 1408 1405 1402 1400 1396 1393 1390 1387 1384 1382 1379 1377 1374 1372 1370 1366 1360 1355 1354 1352 1349 1348 1348 1346 1344 1344 1343 1341 1340 1339 1339 1339 1338 1338 1337 1338 1338 1337 1336 1334 1334 1333 1332 1332 1332 1331 1332 1332 1331 1331 1331 1331 1331 1331 1330 1330 1330 1330
1423 1419 1415 1412 1408 1403 1398 1396 1393 1390 1387 1384 1381 1378 1375 1372 1370 1368 1367 1364 1359 1353 1350 1348 1346 1344 1343 1342 1340 1339 1338 1337 1335 1334 1333 1332 1332 1332 1332 1331 1331 1332 1331 1330 1330 1329 1328 1327 1328 1327 1327 1327 1327 1327 1327 1327 1327 1328 1327 1327 1326 1326 1327
1419 1415 1410 1406 1403 1399 1395 1391 1387 1385 1382 1379 1375 1371 1368 1363 1360 1359 1359 1357 1353 1348 1344 1343 1341 1339 1337 1336 1334 1333 1332 1330 1329 1328 1327 1325 1325 1325 1325 1325 1325 1324 1324 1325 1325 1324 1323 1323 1323 1323 1322 1322 1323 1323 1323 1323 1323 1323 1324 1323 1323 1323 1323
1410 1409 1406 1402 1397 1394 1390 1386 1382 1378 1375 1372 1368 1365 1361 1356 1351 1349 1349 1348 1346 1343 1340 1338 1335 1333 1332 1331 1329 1327 1326 1324 1323 1322 1321 1319 1319 1318 1319 1319 1318 1318 1318 1319 1319 1318 1318 1318 1318 1318 1318 1318 1318 1318 1318 1318 1319 1319 1320 1320 1320 1320 1320
1400 1400 1399 1397 1392 1387 1383 1379 1375 1371 1368 1365 1362 1359 1356 1351 1346 1343 1342 1340 1339 1338 1335 1333 1331 1328 1326 1325 1323 1322 1321 1319 1317 1316 1315 1314 1313 1312 1312 1312 1312 1312 1312 1312 1312 1313 1313 1313 1313 1313 1313 1313 1313 1313 1313 1314 1314 1315 1316 1316 1316 1316 1316